Location: Hylvaty SDH
(49.9612°N, 16.4057°E)
Time: 01:15:05
(UTC+01:00)

Vanguard 1 - All Passes

Search period start: 26 January 2020 00:00
Search period end: 05 February 2020 00:00
Orbit: 651 x 3833 km, 34.2° (Epoch: 25 January)

Date Brightness Start Highest point End Pass type
(mag) Time Alt. Az. Time Alt. Az. Time Alt. Az.
26 Jan - 18:58:27 10° SW 19:01:08 15° S 19:04:20 10° SSE visible
27 Jan - 17:01:17 10° S 17:02:45 11° S 17:04:15 10° SSE daylight
27 Jan - 19:19:28 10° SSW 19:21:48 13° S 19:24:28 10° SSE visible
28 Jan - 17:21:30 10° SSW 17:23:20 12° S 17:25:14 10° SSE visible
28 Jan - 19:41:12 10° SSW 19:42:28 11° S 19:43:51 10° S visible
29 Jan - 17:42:08 10° SSW 17:43:56 12° S 17:45:49 10° SSE visible
30 Jan - 15:44:44 10° S 15:45:32 10° S 15:46:19 10° SSE daylight
30 Jan - 18:03:10 10° SSW 18:04:32 11° S 18:05:58 10° SSE visible
31 Jan - 16:04:30 10° SSW 16:06:08 12° S 16:07:44 10° SSE daylight
01 Feb - 16:24:56 10° SSW 16:26:44 12° S 16:28:29 10° SSE daylight
02 Feb - 14:26:19 10° SSW 14:28:15 12° S 14:30:01 10° SSE daylight
02 Feb - 16:45:46 10° SSW 16:47:19 11° S 16:48:51 10° SSE daylight
03 Feb - 14:46:11 10° SSW 14:48:55 13° S 14:51:17 10° SSE daylight
03 Feb - 17:07:27 10° SSW 17:07:54 10° SSW 17:08:20 10° S daylight
04 Feb - 12:47:54 10° S 12:50:07 11° SSE 12:52:05 10° SSE daylight
04 Feb - 15:06:33 10° SW 15:09:32 14° S 15:12:07 10° SSE daylight
